Weather in Baranchinsky

Russia / Sverdlovsk Oblast     58°09′44″N   59°41′47″E
temp.,
°C
wind,
m/s
gust,
m/s
humid.,
%
clouds,
%
prec.,
mm/h
press.,
hPa
HPBL,
m
2 august, mon
mon223:00+14w310920 0.2 1009208
02:00+13wsw3109211 0.0 1009227
05:00+13w3109338 0.0 1010263
08:00+17w4978100 0.0 1011557
11:00+20wnw585999 0.0 10121269
14:00+23wnw584682 0.0 10112156
17:00+24wnw4847100 0.0 10112141
20:00+19wsw2579100 0.1 1011149
3 august, tue
tue323:00+17wsw3883100 0.3 1011220
02:00+16w310935 0.0 1011264
05:00+14w399766 0.0 1011232
08:00+19wnw41078100 0.0 1012432
11:00+24nw4648100 0.0 10121337
14:00+26nw4541100 0.0 10121743
17:00+26nw344080 0.0 10121834
20:00+21nw116736 0.0 101212
4 august, wed
wed423:00+16ssw018012 0.0 101211
02:00+15s00835 0.0 101311
05:00+15ssw11845 0.0 101312
08:00+20s126669 0.0 1012173
11:00+27s23535 0.0 1012742
14:00+31ssw343728 0.0 10101811
17:00+30wsw24435 0.1 10101198
20:00+25s22675 0.0 100836
5 august, thu
thu523:00+21s117928 0.1 100913
02:00+19wsw4138127 0.3 1009370
05:00+16wsw259790 0.3 1009116
08:00+20w478274 0.0 1009537
11:00+21w467199 0.0 1009908
14:00+23w5663100 0.1 10091267
17:00+21wnw576583 0.2 10101118
20:00+19nw510644 0.0 1010971
6 august, fri
fri623:00+15nw310745 0.0 1011412
02:00+13nw388211 0.0 1011190
05:00+14wnw3107479 0.0 1011299
08:00+17nw511600 0.0 1011764
11:00+20nw57381 0.0 10111593
14:00+22nw57345 0.0 10111858
17:00+21nw573927 0.0 10111984
20:00+17nw375785 0.0 1012268